Tracking 29892 objects as of 21-Nov-2024
HD Live streaming from Space Station
objects crossing your sky now

STARLINK-1642

Track STARLINK-1642 now!
10-day predictions
STARLINK-1642 is classified as:


NORAD ID: 46154
Int'l Code: 2020-057AP
Perigee: 553.6 km
Apogee: 555.0 km
Inclination: 53.1 °
Period: 95.6 minutes
Semi major axis: 6925 km
RCS: Unknown
Launch date: August 18, 2020
Source: United States (US)
Launch site: AIR FORCE EASTERN TEST RANGE (AFETR)
Your satellite tracking list
Your tracking list is empty




NASA's NSSDC Master Catalog

Two Line Element Set (TLE):
1 46154U 20057AP  24325.87377298  .00020027  00000-0  13589-2 0  9990
2 46154  53.0556 273.6591 0000963  77.2879 282.8218 15.06417616234790
Source of the keplerian elements: AFSPC